Location: Unspecified
(0.0000°N, 0.0000°E)
Time: 21:34:35
(UTC+00:00)

N. Korean satellite - Pass Details

Date: 10 December 2021
Orbit: 447 x 491 km, 97.3° (Epoch: 23 January)

Event Time Altitude Azimuth Distance (km) Brightness Sun altitude
Rises 05:16:54 0° 353° (N) 2,444 9.8 -8.3°
Reaches altitude 10° 05:19:05 10° 341° (NNW) 1,582 8.8 -7.8°
Maximum altitude 05:22:03 28° 281° (W) 886 7.3 -7.1°
Drops below altitude 10° 05:25:03 10° 220° (SW) 1,610 9.0 -6.4°
Sets 05:27:18 0° 208° (SSW) 2,497 10.1 -5.9°
